Home > Weather > Yuzhno-Sakhalinsk > Past weeks

Flag for Russia Weather for the Past 2 Weeks in Yuzhno-Sakhalinsk, Russia

Now
46 °F

Mostly cloudy.


Feels Like: 42 °F
Forecast: 32 / 53 °F
Wind: 8 mph from Southwest

Location: Yuzhno Airport-Sakhalinsk

Current Time: May 5, 2016 at 2:56:15 PM

Latest Report: May 5, 2016 at 2:30 PM


Visibility: N/A

Pressure: 29.39 "Hg

Humidity: 93%

Dew Point: 45 °F

Location of Yuzhno-SakhalinskLocation

Historic Weather in Yuzhno-Sakhalinsk — Graph

°F

Yuzhno-Sakhalinsk Temperature Yesterday

Maximum temperature yesterday: 46 °F (at 12:00 AM)
Minimum temperature yesterday: 37 °F (at 6:30 PM)
Average temperature yesterday: 42 °F

High & Low Weather Summary for the Past Weeks

 TemperatureHumidityPressure
High55 °F (May 3, 5:30 PM)100% (Apr 21, 6:00 AM)30.21 "Hg (Apr 21, 6:00 AM)
Low23 °F (May 2, 6:00 AM)35% (Apr 27, 7:00 PM)29.39 "Hg (May 5, 1:30 PM)
Average39 °F82%29.83 "Hg
* Reported Apr 20 1:00 PM — May 5 1:30 PM, Yuzhno-Sakhalinsk, Weather by CustomWeather, © 2016

Note: Actual official high and low records may vary slightly from our data, if they occured in-between our weather recording intervals... More about our weather records

Advertising

Yuzhno-Sakhalinsk Weather History for the Previous 24 Hours

Scroll right to see more
 ConditionsComfort  
Time TempWeatherWind HumidityBarometerVisibility
1:30 PM
Thu, May 5
46 °FMostly cloudy.3 mph93%29.39 "HgN/A
1:00 PM46 °FSprinkles. Mostly cloudy.1 mph93%29.42 "HgN/A
12:30 PM46 °FSprinkles. Mostly cloudy.1 mph93%29.42 "HgN/A
12:00 PM45 °FSprinkles. More clouds than sun.1 mph93%29.42 "HgN/A
11:30 AM45 °FMore clouds than sun.No wind87%29.42 "HgN/A
11:00 AM43 °FMore clouds than sun.No wind93%29.42 "HgN/A
10:30 AM41 °FMore clouds than sun.No wind93%29.42 "Hg5 mi
10:00 AM39 °FSprinkles. Mostly cloudy.No wind100%29.42 "Hg5 mi
9:30 AM39 °FSprinkles. Mostly cloudy.1 mph100%29.42 "Hg4 mi
9:00 AM39 °FSprinkles. Partly sunny.1 mph100%29.42 "Hg4 mi
8:30 AM39 °FSprinkles. Fog.No wind100%29.42 "Hg2 mi
8:00 AM37 °FRain showers. Fog.1 mph100%29.42 "Hg1 mi
7:30 AM37 °FSprinkles. Fog.1 mph100%29.42 "Hg1 mi
7:00 AM37 °FSprinkles. Fog.1 mph100%29.42 "Hg1 mi
6:30 AM37 °FFog.1 mph100%29.42 "Hg2 mi
6:00 AM37 °FSprinkles. Fog.No wind100%29.42 "Hg3 mi
5:00 AM36 °FSprinkles. Passing clouds.No wind100%29.42 "Hg5 mi
4:00 AM36 °FSprinkles. Passing clouds.1 mph100%29.42 "HgN/A
3:00 AM37 °FSprinkles. Passing clouds.3 mph100%29.42 "HgN/A
2:00 AM37 °FSprinkles. Passing clouds.13 mph93%29.42 "HgN/A
1:00 AM37 °FPassing clouds.17 mph93%29.42 "HgN/A
12:00 AM37 °FSprinkles. Passing clouds.17 mph100%29.42 "Hg5 mi
11:00 PM
Wed, May 4
37 °FSprinkles. Passing clouds.13 mph100%29.45 "Hg5 mi
10:30 PM37 °FSprinkles. Passing clouds.13 mph100%29.45 "Hg5 mi
10:00 PM37 °FSprinkles. Passing clouds.15 mph93%29.47 "Hg5 mi
9:30 PM37 °FSprinkles. Passing clouds.17 mph93%29.47 "HgN/A
9:00 PM37 °FSprinkles. Partly cloudy.17 mph93%29.47 "HgN/A
8:30 PM37 °FSprinkles. Broken clouds.17 mph93%29.47 "Hg5 mi
8:00 PM37 °FSprinkles. Partly sunny.17 mph93%29.47 "Hg5 mi
7:30 PM37 °FSprinkles. Fog.13 mph93%29.47 "Hg3 mi
7:00 PM37 °FSprinkles. Fog.10 mph100%29.47 "Hg2 mi
6:30 PM37 °FSprinkles. Mostly cloudy.10 mph100%29.47 "Hg4 mi
6:00 PM39 °FSprinkles. Partly sunny.10 mph93%29.47 "Hg4 mi
5:30 PM39 °FSprinkles. Broken clouds.13 mph93%29.50 "HgN/A
5:00 PM41 °FBroken clouds.13 mph93%29.47 "HgN/A
4:30 PM41 °FSprinkles. Broken clouds.10 mph93%29.45 "Hg4 mi
4:00 PM39 °FSprinkles. Fog.10 mph100%29.50 "Hg1 mi
3:30 PM41 °FSprinkles. Fog.10 mph93%29.53 "Hg3 mi
3:00 PM43 °FBroken clouds.13 mph93%29.50 "HgN/A
2:30 PM43 °FSprinkles. Broken clouds.20 mph100%29.50 "Hg5 mi
2:00 PM41 °FSprinkles. Broken clouds.20 mph100%29.53 "Hg5 mi
Weather by CustomWeather, © 2016

See weather overviewHow to use our weather pages